Location: Unspecified
(43.3830°N, 0.0000°E)
Time: 03:05:01
(UTC+00:00)

Explorer 7 - Pass Details

Date: 30 June 2019
Orbit: 485 x 680 km, 50.3° (Epoch: 22 July)

Event Time Altitude Azimuth Distance (km) Brightness Sun altitude
Rises 05:58:21 0° 237° (WSW) 2,626 9.7 14.8°
Reaches altitude 10° 06:00:29 10° 237° (WSW) 1,768 8.9 15.1°
Maximum altitude 06:04:31 85° 148° (SSE) 558 7.2 15.8°
Drops below altitude 10° 06:08:50 10° 61° (ENE) 1,894 11.6 16.6°
Sets 06:11:11 0° 61° (ENE) 2,833 12.0 17.0°
